owner,sensor,date,latitude,longitude,vertical_datum,wind_speed,wind_to_direction,wind_speed_of_gust,qcFlag 
TCOON,ioos:station:TCOON:057:1,2013-12-01T00:00:00Z,28.4460,-96.3961,0.0,3.6,111.0,4.7,'11111222,11111222,11111222' 
TCOON,ioos:station:TCOON:057:1,2013-12-01T00:06:00Z,28.4460,-96.3961,0.0,4.3,107.0,4.5,'11111222,11111222,11111222' 
TCOON,ioos:station:TCOON:057:1,2013-12-01T00:12:00Z,28.4460,-96.3961,0.0,3.9,109.0,4.4,'11111222,11111222,11111222' 
TCOON,ioos:station:TCOON:057:1,2013-12-01T00:18:00Z,28.4460,-96.3961,0.0,3.9,108.0,4.2,'11111222,11111222,11111222' 
TCOON,ioos:station:TCOON:057:1,2013-12-01T00:24:00Z,28.4460,-96.3961,0.0,4.1,108.0,4.2,'11111222,11111222,11111222' 
TCOON,ioos:station:TCOON:057:1,2013-12-01T00:30:00Z,28.4460,-96.3961,0.0,3.6,107.0,4.2,'11111222,11111222,11111222' 
TCOON,ioos:station:TCOON:057:1,2013-12-01T00:36:00Z,28.4460,-96.3961,0.0,3.4,99.0,3.7,'11111222,11111222,11111222' 
TCOON,ioos:station:TCOON:057:1,2013-12-01T00:42:00Z,28.4460,-96.3961,0.0,3.4,99.0,3.6,'11111222,11111222,11111222' 
TCOON,ioos:station:TCOON:057:1,2013-12-01T00:48:00Z,28.4460,-96.3961,0.0,3.4,97.0,3.7,'11111222,11111222,11111222' 
TCOON,ioos:station:TCOON:057:1,2013-12-01T00:54:00Z,28.4460,-96.3961,0.0,3.7,89.0,3.9,'11111222,11111222,11111222' 
TCOON,ioos:station:TCOON:057:1,2013-12-01T01:00:00Z,28.4460,-96.3961,0.0,3.4,88.0,3.7,'11111222,11111222,11111222' 
TCOON,ioos:station:TCOON:057:1,2013-12-01T01:06:00Z,28.4460,-96.3961,0.0,3.5,94.0,3.6,'11111222,11111222,11111222' 
TCOON,ioos:station:TCOON:057:1,2013-12-01T01:12:00Z,28.4460,-96.3961,0.0,2.9,92.0,3.5,'11111222,11111222,11111222' 
TCOON,ioos:station:TCOON:057:1,2013-12-01T01:18:00Z,28.4460,-96.3961,0.0,2.7,80.0,3.0,'11111222,11111222,11111222' 
TCOON,ioos:station:TCOON:057:1,2013-12-01T01:24:00Z,28.4460,-96.3961,0.0,2.4,77.0,2.7,'11111222,11111222,11111222' 
TCOON,ioos:station:TCOON:057:1,2013-12-01T01:30:00Z,28.4460,-96.3961,0.0,2.0,77.0,2.4,'11111222,11111222,11111222' 
TCOON,ioos:station:TCOON:057:1,2013-12-01T01:36:00Z,28.4460,-96.3961,0.0,2.1,80.0,2.4,'11111222,11111222,11111222' 
TCOON,ioos:station:TCOON:057:1,2013-12-01T01:42:00Z,28.4460,-96.3961,0.0,2.8,77.0,3.0,'11111222,11111222,11111222' 
TCOON,ioos:station:TCOON:057:1,2013-12-01T01:48:00Z,28.4460,-96.3961,0.0,2.7,56.0,3.0,'11111222,11111222,11111222' 
TCOON,ioos:station:TCOON:057:1,2013-12-01T01:54:00Z,28.4460,-96.3961,0.0,2.4,74.0,2.6,'11111222,11111222,11111222' 
TCOON,ioos:station:TCOON:057:1,2013-12-01T02:00:00Z,28.4460,-96.3961,0.0,2.7,75.0,2.8,'11111222,11111222,11111222' 
TCOON,ioos:station:TCOON:057:1,2013-12-01T02:06:00Z,28.4460,-96.3961,0.0,3.1,72.0,3.2,'11111222,11111222,11111222' 
TCOON,ioos:station:TCOON:057:1,2013-12-01T02:12:00Z,28.4460,-96.3961,0.0,2.9,83.0,3.2,'11111222,11111222,11111222' 
TCOON,ioos:station:TCOON:057:1,2013-12-01T02:18:00Z,28.4460,-96.3961,0.0,2.6,84.0,2.9,'11111222,11111222,11111222' 
TCOON,ioos:station:TCOON:057:1,2013-12-01T02:24:00Z,28.4460,-96.3961,0.0,2.8,83.0,3.1,'11111222,11111222,11111222' 
TCOON,ioos:station:TCOON:057:1,2013-12-01T02:30:00Z,28.4460,-96.3961,0.0,2.7,86.0,2.9,'11111222,11111222,11111222' 
TCOON,ioos:station:TCOON:057:1,2013-12-01T02:36:00Z,28.4460,-96.3961,0.0,2.5,80.0,2.7,'11111222,11111222,11111222' 
TCOON,ioos:station:TCOON:057:1,2013-12-01T02:42:00Z,28.4460,-96.3961,0.0,2.6,78.0,2.8,'11111222,11111222,11111222' 
TCOON,ioos:station:TCOON:057:1,2013-12-01T02:48:00Z,28.4460,-96.3961,0.0,2.6,70.0,2.8,'11111222,11111222,11111222' 
TCOON,ioos:station:TCOON:057:1,2013-12-01T02:54:00Z,28.4460,-96.3961,0.0,2.5,69.0,2.7,'11111222,11111222,11111222' 
TCOON,ioos:station:TCOON:057:1,2013-12-01T03:00:00Z,28.4460,-96.3961,0.0,2.5,78.0,2.6,'11111222,11111222,11111222' 
TCOON,ioos:station:TCOON:057:1,2013-12-01T03:06:00Z,28.4460,-96.3961,0.0,2.4,77.0,2.6,'11111222,11111222,11111222' 
TCOON,ioos:station:TCOON:057:1,2013-12-01T03:12:00Z,28.4460,-96.3961,0.0,2.5,67.0,2.7,'11111222,11111222,11111222' 
TCOON,ioos:station:TCOON:057:1,2013-12-01T03:18:00Z,28.4460,-96.3961,0.0,2.7,62.0,2.9,'11111222,11111222,11111222' 
TCOON,ioos:station:TCOON:057:1,2013-12-01T03:24:00Z,28.4460,-96.3961,0.0,3.0,69.0,3.2,'11111222,11111222,11111222' 
TCOON,ioos:station:TCOON:057:1,2013-12-01T03:30:00Z,28.4460,-96.3961,0.0,3.0,78.0,3.3,'11111222,11111222,11111222' 
TCOON,ioos:station:TCOON:057:1,2013-12-01T03:36:00Z,28.4460,-96.3961,0.0,2.8,79.0,3.4,'11111222,11111222,11111222' 
TCOON,ioos:station:TCOON:057:1,2013-12-01T03:42:00Z,28.4460,-96.3961,0.0,3.1,82.0,3.2,'11111222,11111222,11111222' 
TCOON,ioos:station:TCOON:057:1,2013-12-01T03:48:00Z,28.4460,-96.3961,0.0,3.0,86.0,3.2,'11111222,11111222,11111222' 
TCOON,ioos:station:TCOON:057:1,2013-12-01T03:54:00Z,28.4460,-96.3961,0.0,3.1,86.0,3.2,'11111222,11111222,11111222' 
TCOON,ioos:station:TCOON:057:1,2013-12-01T04:00:00Z,28.4460,-96.3961,0.0,3.4,87.0,3.6,'11111222,11111222,11111222' 
TCOON,ioos:station:TCOON:057:1,2013-12-01T04:06:00Z,28.4460,-96.3961,0.0,3.4,86.0,3.7,'11111222,11111222,11111222' 
TCOON,ioos:station:TCOON:057:1,2013-12-01T04:12:00Z,28.4460,-96.3961,0.0,3.4,83.0,3.6,'11111222,11111222,11111222' 
TCOON,ioos:station:TCOON:057:1,2013-12-01T04:18:00Z,28.4460,-96.3961,0.0,2.9,82.0,3.5,'11111222,11111222,11111222' 
TCOON,ioos:station:TCOON:057:1,2013-12-01T04:24:00Z,28.4460,-96.3961,0.0,2.9,84.0,3.2,'11111222,11111222,11111222' 
TCOON,ioos:station:TCOON:057:1,2013-12-01T04:30:00Z,28.4460,-96.3961,0.0,2.9,85.0,3.5,'11111222,11111222,11111222' 
TCOON,ioos:station:TCOON:057:1,2013-12-01T04:36:00Z,28.4460,-96.3961,0.0,3.1,85.0,3.3,'11111222,11111222,11111222' 
TCOON,ioos:station:TCOON:057:1,2013-12-01T04:42:00Z,28.4460,-96.3961,0.0,3.3,85.0,3.5,'11111222,11111222,11111222' 
TCOON,ioos:station:TCOON:057:1,2013-12-01T04:48:00Z,28.4460,-96.3961,0.0,2.8,88.0,3.4,'11111222,11111222,11111222' 
TCOON,ioos:station:TCOON:057:1,2013-12-01T04:54:00Z,28.4460,-96.3961,0.0,2.6,82.0,2.7,'11111222,11111222,11111222' 
TCOON,ioos:station:TCOON:057:1,2013-12-01T05:00:00Z,28.4460,-96.3961,0.0,2.5,80.0,2.8,'11111222,11111222,11111222' 
TCOON,ioos:station:TCOON:057:1,2013-12-01T05:06:00Z,28.4460,-96.3961,0.0,2.3,64.0,2.8,'11111222,11111222,11111222' 
TCOON,ioos:station:TCOON:057:1,2013-12-01T05:12:00Z,28.4460,-96.3961,0.0,2.7,63.0,2.8,'11111222,11111222,11111222' 
TCOON,ioos:station:TCOON:057:1,2013-12-01T05:18:00Z,28.4460,-96.3961,0.0,2.3,47.0,2.8,'11111222,11111222,11111222' 
TCOON,ioos:station:TCOON:057:1,2013-12-01T05:24:00Z,28.4460,-96.3961,0.0,2.3,34.0,2.5,'11111222,11111222,11111222' 
TCOON,ioos:station:TCOON:057:1,2013-12-01T05:30:00Z,28.4460,-96.3961,0.0,2.5,28.0,2.7,'11111222,11111222,11111222' 
TCOON,ioos:station:TCOON:057:1,2013-12-01T05:36:00Z,28.4460,-96.3961,0.0,2.8,30.0,3.0,'11111222,11111222,11111222' 
TCOON,ioos:station:TCOON:057:1,2013-12-01T05:42:00Z,28.4460,-96.3961,0.0,2.3,40.0,3.1,'11111222,11111222,11111222' 
TCOON,ioos:station:TCOON:057:1,2013-12-01T05:48:00Z,28.4460,-96.3961,0.0,2.2,53.0,2.5,'11111222,11111222,11111222' 
TCOON,ioos:station:TCOON:057:1,2013-12-01T05:54:00Z,28.4460,-96.3961,0.0,2.4,52.0,2.9,'11111222,11111222,11111222' 
TCOON,ioos:station:TCOON:057:1,2013-12-01T06:00:00Z,28.4460,-96.3961,0.0,2.4,57.0,2.7,'11111222,11111222,11111222' 
TCOON,ioos:station:TCOON:057:1,2013-12-01T06:06:00Z,28.4460,-96.3961,0.0,2.2,62.0,2.5,'11111222,11111222,11111222' 
TCOON,ioos:station:TCOON:057:1,2013-12-01T06:12:00Z,28.4460,-96.3961,0.0,1.9,66.0,2.2,'11111222,11111222,11111222' 
TCOON,ioos:station:TCOON:057:1,2013-12-01T06:18:00Z,28.4460,-96.3961,0.0,1.9,77.0,2.4,'11111222,11111222,11111222' 
TCOON,ioos:station:TCOON:057:1,2013-12-01T06:24:00Z,28.4460,-96.3961,0.0,2.0,84.0,2.3,'11111222,11111222,11111222' 
TCOON,ioos:station:TCOON:057:1,2013-12-01T06:30:00Z,28.4460,-96.3961,0.0,1.8,93.0,2.3,'11111222,11111222,11111222' 
TCOON,ioos:station:TCOON:057:1,2013-12-01T06:36:00Z,28.4460,-96.3961,0.0,1.6,114.0,2.2,'11111222,11111222,11111222' 
TCOON,ioos:station:TCOON:057:1,2013-12-01T06:42:00Z,28.4460,-96.3961,0.0,1.3,118.0,2.0,'11111222,11111222,11111222' 
TCOON,ioos:station:TCOON:057:1,2013-12-01T06:48:00Z,28.4460,-96.3961,0.0,1.1,132.0,1.4,'11111222,11111222,11111222' 
TCOON,ioos:station:TCOON:057:1,2013-12-01T06:54:00Z,28.4460,-96.3961,0.0,1.2,121.0,1.4,'11111222,11111222,11111222' 
TCOON,ioos:station:TCOON:057:1,2013-12-01T07:00:00Z,28.4460,-96.3961,0.0,1.8,112.0,2.1,'11111222,11111222,11111222' 
TCOON,ioos:station:TCOON:057:1,2013-12-01T07:06:00Z,28.4460,-96.3961,0.0,2.4,112.0,2.5,'11111222,11111222,11111222' 
TCOON,ioos:station:TCOON:057:1,2013-12-01T07:12:00Z,28.4460,-96.3961,0.0,1.5,117.0,2.5,'11111222,11111222,11111222' 
TCOON,ioos:station:TCOON:057:1,2013-12-01T07:18:00Z,28.4460,-96.3961,0.0,0.6,110.0,1.2,'11111222,11111222,11111222' 
TCOON,ioos:station:TCOON:057:1,2013-12-01T07:24:00Z,28.4460,-96.3961,0.0,0.1,84.0,0.9,'11111222,11111222,11111222' 
TCOON,ioos:station:TCOON:057:1,2013-12-01T07:30:00Z,28.4460,-96.3961,0.0,0.6,86.0,0.7,'11111222,11111222,11111222' 
TCOON,ioos:station:TCOON:057:1,2013-12-01T07:36:00Z,28.4460,-96.3961,0.0,0.5,132.0,0.9,'11111222,11111222,11111222' 
TCOON,ioos:station:TCOON:057:1,2013-12-01T07:42:00Z,28.4460,-96.3961,0.0,0.7,126.0,0.9,'11111222,11111222,11111222' 
TCOON,ioos:station:TCOON:057:1,2013-12-01T07:48:00Z,28.4460,-96.3961,0.0,0.6,111.0,0.8,'11111222,11111222,11111222' 
TCOON,ioos:station:TCOON:057:1,2013-12-01T07:54:00Z,28.4460,-96.3961,0.0,0.7,128.0,0.9,'11111222,11111222,11111222' 
TCOON,ioos:station:TCOON:057:1,2013-12-01T08:00:00Z,28.4460,-96.3961,0.0,0.7,138.0,0.9,'11111222,11111222,11111222' 
TCOON,ioos:station:TCOON:057:1,2013-12-01T08:06:00Z,28.4460,-96.3961,0.0,0.5,141.0,0.7,'11111222,11111222,11111222' 
TCOON,ioos:station:TCOON:057:1,2013-12-01T08:12:00Z,28.4460,-96.3961,0.0,0.4,152.0,0.9,'11111222,11111222,11111222' 
TCOON,ioos:station:TCOON:057:1,2013-12-01T08:18:00Z,28.4460,-96.3961,0.0,0.6,155.0,0.7,'11111222,11111222,11111222' 
TCOON,ioos:station:TCOON:057:1,2013-12-01T08:24:00Z,28.4460,-96.3961,0.0,0.8,144.0,0.9,'11111222,11111222,11111222' 
TCOON,ioos:station:TCOON:057:1,2013-12-01T08:30:00Z,28.4460,-96.3961,0.0,0.6,137.0,0.8,'11111222,11111222,11111222' 
TCOON,ioos:station:TCOON:057:1,2013-12-01T08:36:00Z,28.4460,-96.3961,0.0,0.7,124.0,0.8,'11111222,11111222,11111222' 
TCOON,ioos:station:TCOON:057:1,2013-12-01T08:42:00Z,28.4460,-96.3961,0.0,1.1,115.0,1.2,'11111222,11111222,11111222' 
TCOON,ioos:station:TCOON:057:1,2013-12-01T08:48:00Z,28.4460,-96.3961,0.0,0.9,111.0,1.2,'11111222,11111222,11111222' 
TCOON,ioos:station:TCOON:057:1,2013-12-01T08:54:00Z,28.4460,-96.3961,0.0,1.3,84.0,1.4,'11111222,11111222,11111222' 
TCOON,ioos:station:TCOON:057:1,2013-12-01T09:00:00Z,28.4460,-96.3961,0.0,1.3,106.0,1.5,'11111222,11111222,11111222' 
TCOON,ioos:station:TCOON:057:1,2013-12-01T09:06:00Z,28.4460,-96.3961,0.0,1.7,112.0,1.8,'11111222,11111222,11111222' 
TCOON,ioos:station:TCOON:057:1,2013-12-01T09:12:00Z,28.4460,-96.3961,0.0,1.5,96.0,1.6,'11111222,11111222,11111222' 
TCOON,ioos:station:TCOON:057:1,2013-12-01T09:18:00Z,28.4460,-96.3961,0.0,1.2,80.0,1.6,'11111222,11111222,11111222' 
TCOON,ioos:station:TCOON:057:1,2013-12-01T09:24:00Z,28.4460,-96.3961,0.0,1.0,70.0,1.5,'11111222,11111222,11111222' 
TCOON,ioos:station:TCOON:057:1,2013-12-01T09:30:00Z,28.4460,-96.3961,0.0,1.2,57.0,1.3,'11111222,11111222,11111222' 
TCOON,ioos:station:TCOON:057:1,2013-12-01T09:36:00Z,28.4460,-96.3961,0.0,1.1,68.0,1.5,'11111222,11111222,11111222' 
TCOON,ioos:station:TCOON:057:1,2013-12-01T09:42:00Z,28.4460,-96.3961,0.0,0.8,39.0,1.1,'11111222,11111222,11111222' 
TCOON,ioos:station:TCOON:057:1,2013-12-01T09:48:00Z,28.4460,-96.3961,0.0,1.4,39.0,1.6,'11111222,11111222,11111222' 
TCOON,ioos:station:TCOON:057:1,2013-12-01T09:54:00Z,28.4460,-96.3961,0.0,1.3,57.0,1.6,'11111222,11111222,11111222' 
TCOON,ioos:station:TCOON:057:1,2013-12-01T10:00:00Z,28.4460,-96.3961,0.0,1.3,42.0,1.6,'11111222,11111222,11111222' 
TCOON,ioos:station:TCOON:057:1,2013-12-01T10:06:00Z,28.4460,-96.3961,0.0,1.1,46.0,1.5,'11111222,11111222,11111222' 
TCOON,ioos:station:TCOON:057:1,2013-12-01T10:12:00Z,28.4460,-96.3961,0.0,1.7,62.0,1.9,'11111222,11111222,11111222' 
TCOON,ioos:station:TCOON:057:1,2013-12-01T10:18:00Z,28.4460,-96.3961,0.0,1.6,50.0,1.9,'11111222,11111222,11111222' 
TCOON,ioos:station:TCOON:057:1,2013-12-01T10:24:00Z,28.4460,-96.3961,0.0,1.1,43.0,1.6,'11111222,11111222,11111222' 
TCOON,ioos:station:TCOON:057:1,2013-12-01T10:30:00Z,28.4460,-96.3961,0.0,1.0,29.0,1.3,'11111222,11111222,11111222' 
TCOON,ioos:station:TCOON:057:1,2013-12-01T10:36:00Z,28.4460,-96.3961,0.0,1.3,18.0,1.5,'11111222,11111222,11111222' 
TCOON,ioos:station:TCOON:057:1,2013-12-01T10:42:00Z,28.4460,-96.3961,0.0,1.0,23.0,1.3,'11111222,11111222,11111222' 
TCOON,ioos:station:TCOON:057:1,2013-12-01T10:48:00Z,28.4460,-96.3961,0.0,1.0,36.0,1.2,'11111222,11111222,11111222' 
TCOON,ioos:station:TCOON:057:1,2013-12-01T10:54:00Z,28.4460,-96.3961,0.0,0.9,38.0,1.1,'11111222,11111222,11111222' 
TCOON,ioos:station:TCOON:057:1,2013-12-01T11:00:00Z,28.4460,-96.3961,0.0,0.8,41.0,1.1,'11111222,11111222,11111222' 
TCOON,ioos:station:TCOON:057:1,2013-12-01T11:06:00Z,28.4460,-96.3961,0.0,1.0,36.0,1.1,'11111222,11111222,11111222' 
TCOON,ioos:station:TCOON:057:1,2013-12-01T11:12:00Z,28.4460,-96.3961,0.0,1.0,50.0,1.2,'11111222,11111222,11111222' 
TCOON,ioos:station:TCOON:057:1,2013-12-01T11:18:00Z,28.4460,-96.3961,0.0,1.3,56.0,1.4,'11111222,11111222,11111222' 
TCOON,ioos:station:TCOON:057:1,2013-12-01T11:24:00Z,28.4460,-96.3961,0.0,1.0,44.0,1.5,'11111222,11111222,11111222' 
TCOON,ioos:station:TCOON:057:1,2013-12-01T11:30:00Z,28.4460,-96.3961,0.0,1.0,45.0,1.2,'11111222,11111222,11111222' 
TCOON,ioos:station:TCOON:057:1,2013-12-01T11:36:00Z,28.4460,-96.3961,0.0,0.8,51.0,1.1,'11111222,11111222,11111222' 
TCOON,ioos:station:TCOON:057:1,2013-12-01T11:42:00Z,28.4460,-96.3961,0.0,0.8,51.0,1.0,'11111222,11111222,11111222' 
TCOON,ioos:station:TCOON:057:1,2013-12-01T11:48:00Z,28.4460,-96.3961,0.0,1.1,74.0,1.3,'11111222,11111222,11111222' 
TCOON,ioos:station:TCOON:057:1,2013-12-01T11:54:00Z,28.4460,-96.3961,0.0,1.8,101.0,2.0,'11111222,11111222,11111222' 
TCOON,ioos:station:TCOON:057:1,2013-12-01T12:00:00Z,28.4460,-96.3961,0.0,2.3,107.0,2.5,'11111222,11111222,11111222' 
TCOON,ioos:station:TCOON:057:1,2013-12-01T12:06:00Z,28.4460,-96.3961,0.0,1.9,105.0,2.2,'11111222,11111222,11111222' 
TCOON,ioos:station:TCOON:057:1,2013-12-01T12:12:00Z,28.4460,-96.3961,0.0,2.5,115.0,2.6,'11111222,11111222,11111222' 
TCOON,ioos:station:TCOON:057:1,2013-12-01T12:18:00Z,28.4460,-96.3961,0.0,2.6,116.0,3.0,'11111222,11111222,11111222' 
TCOON,ioos:station:TCOON:057:1,2013-12-01T12:24:00Z,28.4460,-96.3961,0.0,2.6,124.0,2.8,'11111222,11111222,11111222' 
TCOON,ioos:station:TCOON:057:1,2013-12-01T12:30:00Z,28.4460,-96.3961,0.0,2.3,125.0,2.8,'11111222,11111222,11111222' 
TCOON,ioos:station:TCOON:057:1,2013-12-01T12:36:00Z,28.4460,-96.3961,0.0,2.0,125.0,2.3,'11111222,11111222,11111222' 
TCOON,ioos:station:TCOON:057:1,2013-12-01T12:42:00Z,28.4460,-96.3961,0.0,2.5,120.0,3.2,'11111222,11111222,11111222' 
TCOON,ioos:station:TCOON:057:1,2013-12-01T12:48:00Z,28.4460,-96.3961,0.0,1.8,120.0,2.8,'11111222,11111222,11111222' 
TCOON,ioos:station:TCOON:057:1,2013-12-01T12:54:00Z,28.4460,-96.3961,0.0,0.0,297.0,1.4,'11111222,11111222,11111222' 
TCOON,ioos:station:TCOON:057:1,2013-12-01T13:00:00Z,28.4460,-96.3961,0.0,0.6,344.0,1.1,'11111222,11111222,11111222' 
TCOON,ioos:station:TCOON:057:1,2013-12-01T13:06:00Z,28.4460,-96.3961,0.0,0.2,67.0,0.7,'11111222,11111222,11111222' 
TCOON,ioos:station:TCOON:057:1,2013-12-01T13:12:00Z,28.4460,-96.3961,0.0,1.1,119.0,2.4,'11111222,11111222,11111222' 
TCOON,ioos:station:TCOON:057:1,2013-12-01T13:18:00Z,28.4460,-96.3961,0.0,1.3,142.0,2.0,'11111222,11111222,11111222' 
TCOON,ioos:station:TCOON:057:1,2013-12-01T13:24:00Z,28.4460,-96.3961,0.0,2.2,138.0,2.7,'11111222,11111222,11111222' 
TCOON,ioos:station:TCOON:057:1,2013-12-01T13:30:00Z,28.4460,-96.3961,0.0,2.3,126.0,3.0,'11111222,11111222,11111222' 
TCOON,ioos:station:TCOON:057:1,2013-12-01T13:36:00Z,28.4460,-96.3961,0.0,1.9,116.0,2.7,'11111222,11111222,11111222' 
TCOON,ioos:station:TCOON:057:1,2013-12-01T13:42:00Z,28.4460,-96.3961,0.0,0.8,36.0,1.9,'11111222,11111222,11111222' 
TCOON,ioos:station:TCOON:057:1,2013-12-01T13:48:00Z,28.4460,-96.3961,0.0,1.2,35.0,1.4,'11111222,11111222,11111222' 
TCOON,ioos:station:TCOON:057:1,2013-12-01T13:54:00Z,28.4460,-96.3961,0.0,1.0,69.0,1.4,'11111222,11111222,11111222' 
TCOON,ioos:station:TCOON:057:1,2013-12-01T14:00:00Z,28.4460,-96.3961,0.0,0.8,81.0,1.1,'11111222,11111222,11111222' 
TCOON,ioos:station:TCOON:057:1,2013-12-01T14:06:00Z,28.4460,-96.3961,0.0,1.0,94.0,1.2,'11111222,11111222,11111222' 
TCOON,ioos:station:TCOON:057:1,2013-12-01T14:12:00Z,28.4460,-96.3961,0.0,0.7,85.0,1.0,'11111222,11111222,11111222' 
TCOON,ioos:station:TCOON:057:1,2013-12-01T14:18:00Z,28.4460,-96.3961,0.0,0.8,81.0,1.0,'11111222,11111222,11111222' 
TCOON,ioos:station:TCOON:057:1,2013-12-01T14:24:00Z,28.4460,-96.3961,0.0,0.9,114.0,1.2,'11111222,11111222,11111222' 
TCOON,ioos:station:TCOON:057:1,2013-12-01T14:30:00Z,28.4460,-96.3961,0.0,0.9,104.0,1.3,'11111222,11111222,11111222' 
TCOON,ioos:station:TCOON:057:1,2013-12-01T14:36:00Z,28.4460,-96.3961,0.0,1.2,100.0,1.3,'11111222,11111222,11111222' 
TCOON,ioos:station:TCOON:057:1,2013-12-01T14:42:00Z,28.4460,-96.3961,0.0,0.9,95.0,1.1,'11111222,11111222,11111222' 
TCOON,ioos:station:TCOON:057:1,2013-12-01T14:48:00Z,28.4460,-96.3961,0.0,0.9,121.0,1.2,'11111222,11111222,11111222' 
TCOON,ioos:station:TCOON:057:1,2013-12-01T14:54:00Z,28.4460,-96.3961,0.0,0.1,121.0,0.8,'11111222,11111222,11111222' 
TCOON,ioos:station:TCOON:057:1,2013-12-01T15:00:00Z,28.4460,-96.3961,0.0,0.5,123.0,0.7,'11111222,11111222,11111222' 
TCOON,ioos:station:TCOON:057:1,2013-12-01T15:06:00Z,28.4460,-96.3961,0.0,0.3,136.0,0.8,'11111222,11111222,11111222' 
TCOON,ioos:station:TCOON:057:1,2013-12-01T15:12:00Z,28.4460,-96.3961,0.0,0.0,38.0,0.6,'11111222,11111222,11111222' 
TCOON,ioos:station:TCOON:057:1,2013-12-01T15:18:00Z,28.4460,-96.3961,0.0,0.1,55.0,0.5,'11111222,11111222,11111222' 
TCOON,ioos:station:TCOON:057:1,2013-12-01T15:24:00Z,28.4460,-96.3961,0.0,0.0,58.0,0.3,'11111222,11111222,11111222' 
TCOON,ioos:station:TCOON:057:1,2013-12-01T15:30:00Z,28.4460,-96.3961,0.0,0.1,55.0,0.3,'11111222,11111222,11111222' 
TCOON,ioos:station:TCOON:057:1,2013-12-01T15:36:00Z,28.4460,-96.3961,0.0,0.4,55.0,0.5,'11111222,11111222,11111222' 
TCOON,ioos:station:TCOON:057:1,2013-12-01T15:42:00Z,28.4460,-96.3961,0.0,0.3,55.0,0.6,'11111222,11111222,11111222' 
TCOON,ioos:station:TCOON:057:1,2013-12-01T15:48:00Z,28.4460,-96.3961,0.0,0.6,73.0,0.7,'11111222,11111222,11111222' 
TCOON,ioos:station:TCOON:057:1,2013-12-01T15:54:00Z,28.4460,-96.3961,0.0,0.5,80.0,0.6,'11111222,11111222,11111222' 
TCOON,ioos:station:TCOON:057:1,2013-12-01T16:00:00Z,28.4460,-96.3961,0.0,0.5,83.0,0.6,'11111222,11111222,11111222' 
TCOON,ioos:station:TCOON:057:1,2013-12-01T16:06:00Z,28.4460,-96.3961,0.0,0.3,77.0,0.6,'11111222,11111222,11111222' 
TCOON,ioos:station:TCOON:057:1,2013-12-01T16:12:00Z,28.4460,-96.3961,0.0,0.8,65.0,0.9,'11111222,11111222,11111222' 
TCOON,ioos:station:TCOON:057:1,2013-12-01T16:18:00Z,28.4460,-96.3961,0.0,0.8,56.0,0.9,'11111222,11111222,11111222' 
TCOON,ioos:station:TCOON:057:1,2013-12-01T16:24:00Z,28.4460,-96.3961,0.0,0.7,58.0,0.8,'11111222,11111222,11111222' 
TCOON,ioos:station:TCOON:057:1,2013-12-01T16:30:00Z,28.4460,-96.3961,0.0,0.9,48.0,1.2,'11111222,11111222,11111222' 
TCOON,ioos:station:TCOON:057:1,2013-12-01T16:36:00Z,28.4460,-96.3961,0.0,0.7,48.0,1.2,'11111222,11111222,11111222' 
TCOON,ioos:station:TCOON:057:1,2013-12-01T16:42:00Z,28.4460,-96.3961,0.0,0.6,70.0,0.9,'11111222,11111222,11111222' 
TCOON,ioos:station:TCOON:057:1,2013-12-01T16:48:00Z,28.4460,-96.3961,0.0,0.5,101.0,1.0,'11111222,11111222,11111222' 
TCOON,ioos:station:TCOON:057:1,2013-12-01T16:54:00Z,28.4460,-96.3961,0.0,0.4,77.0,0.7,'11111222,11111222,11111222' 
TCOON,ioos:station:TCOON:057:1,2013-12-01T17:00:00Z,28.4460,-96.3961,0.0,0.7,28.0,0.9,'11111222,11111222,11111222' 
TCOON,ioos:station:TCOON:057:1,2013-12-01T17:06:00Z,28.4460,-96.3961,0.0,1.0,7.0,1.1,'11111222,11111222,11111222' 
TCOON,ioos:station:TCOON:057:1,2013-12-01T17:12:00Z,28.4460,-96.3961,0.0,1.0,12.0,1.3,'11111222,11111222,11111222' 
TCOON,ioos:station:TCOON:057:1,2013-12-01T17:18:00Z,28.4460,-96.3961,0.0,0.8,10.0,0.9,'11111222,11111222,11111222' 
TCOON,ioos:station:TCOON:057:1,2013-12-01T17:24:00Z,28.4460,-96.3961,0.0,0.8,355.0,1.0,'11111222,11111222,11111222' 
TCOON,ioos:station:TCOON:057:1,2013-12-01T17:30:00Z,28.4460,-96.3961,0.0,0.6,14.0,0.8,'11111222,11111222,11111222' 
TCOON,ioos:station:TCOON:057:1,2013-12-01T17:36:00Z,28.4460,-96.3961,0.0,0.3,46.0,0.8,'11111222,11111222,11111222' 
TCOON,ioos:station:TCOON:057:1,2013-12-01T17:42:00Z,28.4460,-96.3961,0.0,0.0,44.0,0.4,'11111222,11111222,11111222' 
TCOON,ioos:station:TCOON:057:1,2013-12-01T17:48:00Z,28.4460,-96.3961,0.0,0.0,44.0,0.0,'11111222,11111222,11111222' 
TCOON,ioos:station:TCOON:057:1,2013-12-01T17:54:00Z,28.4460,-96.3961,0.0,0.0,44.0,0.0,'11111222,11111222,11111222' 
TCOON,ioos:station:TCOON:057:1,2013-12-01T18:00:00Z,28.4460,-96.3961,0.0,0.4,181.0,0.7,'11111222,11111222,11111222' 
TCOON,ioos:station:TCOON:057:1,2013-12-01T18:06:00Z,28.4460,-96.3961,0.0,1.0,152.0,1.2,'11111222,11111222,11111222' 
TCOON,ioos:station:TCOON:057:1,2013-12-01T18:12:00Z,28.4460,-96.3961,0.0,1.7,158.0,1.8,'11111222,11111222,11111222' 
TCOON,ioos:station:TCOON:057:1,2013-12-01T18:18:00Z,28.4460,-96.3961,0.0,1.3,161.0,1.5,'11111222,11111222,11111222' 
TCOON,ioos:station:TCOON:057:1,2013-12-01T18:24:00Z,28.4460,-96.3961,0.0,0.8,159.0,1.2,'11111222,11111222,11111222' 
TCOON,ioos:station:TCOON:057:1,2013-12-01T18:30:00Z,28.4460,-96.3961,0.0,0.3,152.0,1.0,'11111222,11111222,11111222' 
TCOON,ioos:station:TCOON:057:1,2013-12-01T18:36:00Z,28.4460,-96.3961,0.0,0.3,148.0,0.4,'11111222,11111222,11111222' 
TCOON,ioos:station:TCOON:057:1,2013-12-01T18:42:00Z,28.4460,-96.3961,0.0,0.9,129.0,1.0,'11111222,11111222,11111222' 
TCOON,ioos:station:TCOON:057:1,2013-12-01T18:48:00Z,28.4460,-96.3961,0.0,0.9,130.0,1.1,'11111222,11111222,11111222' 
TCOON,ioos:station:TCOON:057:1,2013-12-01T18:54:00Z,28.4460,-96.3961,0.0,0.5,150.0,0.9,'11111222,11111222,11111222' 
TCOON,ioos:station:TCOON:057:1,2013-12-01T19:00:00Z,28.4460,-96.3961,0.0,0.1,148.0,0.5,'11111222,11111222,11111222' 
TCOON,ioos:station:TCOON:057:1,2013-12-01T19:06:00Z,28.4460,-96.3961,0.0,0.4,148.0,0.8,'11111222,11111222,11111222' 
TCOON,ioos:station:TCOON:057:1,2013-12-01T19:12:00Z,28.4460,-96.3961,0.0,0.5,135.0,0.9,'11111222,11111222,11111222' 
TCOON,ioos:station:TCOON:057:1,2013-12-01T19:18:00Z,28.4460,-96.3961,0.0,1.3,133.0,1.6,'11111222,11111222,11111222' 
TCOON,ioos:station:TCOON:057:1,2013-12-01T19:24:00Z,28.4460,-96.3961,0.0,1.9,128.0,2.1,'11111222,11111222,11111222' 
TCOON,ioos:station:TCOON:057:1,2013-12-01T19:30:00Z,28.4460,-96.3961,0.0,1.5,128.0,2.2,'11111222,11111222,11111222' 
TCOON,ioos:station:TCOON:057:1,2013-12-01T19:36:00Z,28.4460,-96.3961,0.0,1.2,105.0,1.4,'11111222,11111222,11111222' 
TCOON,ioos:station:TCOON:057:1,2013-12-01T19:42:00Z,28.4460,-96.3961,0.0,2.0,103.0,2.1,'11111222,11111222,11111222' 
TCOON,ioos:station:TCOON:057:1,2013-12-01T19:48:00Z,28.4460,-96.3961,0.0,2.0,112.0,2.4,'11111222,11111222,11111222' 
TCOON,ioos:station:TCOON:057:1,2013-12-01T19:54:00Z,28.4460,-96.3961,0.0,1.8,114.0,1.9,'11111222,11111222,11111222' 
TCOON,ioos:station:TCOON:057:1,2013-12-01T20:00:00Z,28.4460,-96.3961,0.0,1.1,105.0,1.8,'11111222,11111222,11111222' 
TCOON,ioos:station:TCOON:057:1,2013-12-01T20:06:00Z,28.4460,-96.3961,0.0,1.5,85.0,1.8,'11111222,11111222,11111222' 
TCOON,ioos:station:TCOON:057:1,2013-12-01T20:12:00Z,28.4460,-96.3961,0.0,2.0,99.0,2.1,'11111222,11111222,11111222' 
TCOON,ioos:station:TCOON:057:1,2013-12-01T20:18:00Z,28.4460,-96.3961,0.0,1.7,103.0,2.0,'11111222,11111222,11111222' 
TCOON,ioos:station:TCOON:057:1,2013-12-01T20:24:00Z,28.4460,-96.3961,0.0,2.1,106.0,2.3,'11111222,11111222,11111222' 